SES-12

Last updated on Jan. 27, 2020, 4:38 a.m. UTC

1 43488U 18049A   20026.79855277 -.00000275  00000-0  00000+0 0  9993
2 43488   0.0189  61.9733 0002307 215.6868 230.3309  1.00271560  6024
UTC
Height (km)
Latitude
Longitude
Inclination
Orbital Period
UTC large
Height (km)
Speed (km/s)
/
Latitude / Longitude
Inclination (degrees)
Orbital Period (minutes)
Azimuth
Elevation
Range (km)
Doppler Factor
iOS Compass Heading
iOS Angle

Next 30 passes for location: Hong Kong

Rise time Rise Azimuth (degrees) Set time Set Azimuth (degrees) Duration Max altitude (degrees)

No matching passes for this satellites